This is the latest recevied weather packets stored in our database for station/object N2XP. If no packets are shown the sender has not sent any weather packets the latest 10 day(s).
| Time | Temp. | Humidity | Pressure | Rain* | Wind** | Luminosity | Snow |
|---|---|---|---|---|---|---|---|
| 1777057247 | 21.11° C | 33% | 1005.8 hPa | 0 mm | - | - | - |
| 1777056355 | 21.11° C | 33% | 1006 hPa | 0 mm | - | - | - |
| 1777055443 | 21.11° C | 35% | 1005.9 hPa | 0 mm | - | - | - |
| 1777054554 | 20.56° C | 34% | 1006.1 hPa | 0 mm | - | - | - |
| 1777053637 | 20.56° C | 35% | 1006.2 hPa | 0 mm | - | - | - |
| 1777052736 | 20° C | 38% | 1006.4 hPa | 0 mm | - | - | - |
| 1777051838 | 20° C | 36% | 1006.6 hPa | 0 mm | - | - | - |
| 1777050936 | 19.44° C | 40% | 1006.6 hPa | 0 mm | - | - | - |
| 1777050041 | 19.44° C | 38% | 1006.6 hPa | 0 mm | - | - | - |
| 1777049134 | 20° C | 37% | 1006.6 hPa | 0 mm | - | - | - |
| 1777048226 | 18.89° C | 39% | 1006.9 hPa | 0 mm | - | - | - |
| 1777047345 | 18.89° C | 41% | 1007.1 hPa | 0 mm | - | - | - |
| 1777046403 | 18.33° C | 40% | 1007.4 hPa | 0 mm | - | - | - |
| 1777045502 | 17.78° C | 42% | 1007.5 hPa | 0 mm | - | - | - |
| 1777044601 | 17.22° C | 41% | 1007.5 hPa | 0 mm | - | - | - |
| 1777042858 | 17.78° C | 44% | 1007.6 hPa | 0 mm | - | - | - |
| 1777041956 | 16.67° C | 43% | 1007.6 hPa | 0 mm | - | - | - |
| 1777041059 | 16.67° C | 43% | 1007.7 hPa | 0 mm | - | - | - |
| 1777040156 | 17.22° C | 43% | 1007.9 hPa | 0 mm | - | - | - |
| 1777039254 | 16.67° C | 41% | 1007.9 hPa | 0 mm | - | - | - |
| 1777038351 | 16.67° C | 43% | 1007.8 hPa | 0 mm | - | - | - |
| 1777037449 | 15.56° C | 42% | 1007.6 hPa | 0 mm | - | - | - |
| 1777036547 | 15.56° C | 44% | 1007.6 hPa | 0 mm | - | - | - |
| 1777035650 | 15° C | 45% | 1007.8 hPa | 0 mm | - | - | - |
| 1777034743 | 15° C | 47% | 1007.8 hPa | 0 mm | - | - | - |
* Rain latest hour (hover to see other rain measurements)
** Current wind speed in m/s (hover to see current wind gust speed)